{"data":{"norad_id":57064,"epoch":"2026-05-25T01:23:44.215296Z","epoch_age_seconds":60199,"freshness":"FRESH","line1":"1 57064U 23088S   26145.05815064  .00000111  00000+0  13553-4 0  9993","line2":"2 57064  43.0049  39.2186 0001125 228.6959 131.3796 15.27576585161035","mean_motion":15.27576585,"eccentricity":0.0001125,"inclination_deg":43.0049,"raan_deg":39.2186,"arg_perigee_deg":228.6959,"mean_anomaly_deg":131.3796,"bstar":1.3553e-5,"rev_number":16103,"period_min":94.266959453296,"perigee_km":482.28743721104,"apogee_km":483.83120638344,"semimajor_km":6861.1963217972,"source":"CELESTRAK","updated_at":"2026-05-25T13:38:18.211430Z"}}